Regional Weather Roundup
Issued by NWS

Home | Current Version | Previous Version | Graphics & Text | Print | Product List | Glossary On
Versions: 1 2 3 4 5 6 7 8 9 10 11 12 13 14 15 16 17 18 19 20 21 22 23 24 25 26 27 28 29 30 31 32 33 34 35 36 37 38 39 40 41 42 43 44 45 46 47 48 49 50
013
ASUS43 KDMX 201206
RWRIA

WEATHER ROUNDUP FOR IOWA
NATIONAL WEATHER SERVICE DES MOINES IA
600 AM CST MON FEB 20 2017

NOTE: "FAIR" INDICATES FEW OR NO CLOUDS BELOW 12,000 FEET WITH NO
SIGNIFICANT WEATHER AND/OR OBSTRUCTIONS TO VISIBILITY.

* - THESE STATIONS ARE NOT NWS STATIONS...THUS NOT UNDER NWS
QUALITY CONTROL.  THEY ALSO DO NOT REPORT WEATHER SUCH
AS PRECIPITATION OR FOG.

IAZ001>003-012>014-020>022-031>034-043>046-201300-
   NORTHWEST IOWA

CITY           SKY/WX    TMP DP  RH WIND       PRES   REMARKS
CARROLL *      LGT RAIN  50  50 100 SE6       29.80F
CHEROKEE *     LGT RAIN  50  50  99 SE7       29.77F
DENISON *      CLOUDY    55  55 100 SE15      29.75F FOG
LE MARS *      LGT RAIN  54  54 100 S5        29.75F
SHELDON *      CLOUDY    54  54 100 SE15G24   29.74F FOG
SIOUX CITY     CLOUDY    56  54  93 S8        29.74S
6HR MIN TEMP:  52; 6HR MAX TEMP:  58;

SPENCER        CLOUDY    50  47  89 SE9       29.79R
6HR MIN TEMP:  49; 6HR MAX TEMP:  52;

STORM LAKE *   CLOUDY    52  48  87 SE13      29.79F
$$

IAZ055>058-069>071-079>083-090>094-201300-
   SOUTHWEST IOWA

CITY           SKY/WX    TMP DP  RH WIND       PRES   REMARKS
ATLANTIC *     LGT RAIN  57  57 100 SE7       29.79F
CLARINDA *     CLOUDY    59  59 100 S8          N/A
COUNCIL BLFS * CLOUDY    55  55 100 S8G15     29.75F
CRESTON *      CLOUDY    55  55 100 SE10      29.84F
HARLAN  *      LGT RAIN  55  55 100 S9        29.81F
LAMONI         CLOUDY    59  54  83 S13       29.86R
6HR MIN TEMP:  57; 6HR MAX TEMP:  60;

RED OAK *      CLOUDY    57  57 100 SE7       29.78F
SHENANDOAH *   CLOUDY    57  57 100 SE15G22   29.77F
$$

IAZ047>049-059>061-072>074-084-201300-
   CENTRAL IOWA

CITY           SKY/WX    TMP DP  RH WIND       PRES   REMARKS
AMES           CLOUDY    51  49  92 SE7       29.85F
6HR MIN TEMP:  49; 6HR MAX TEMP:  53;

ANKENY *       CLOUDY    55  52  88 SE7       29.86F
BOONE *        CLOUDY    50  50 100 SE12      29.84F
CHARITON *     CLOUDY    59  54  82 S14G22    29.87F
DES MOINES     CLOUDY    60  53  77 SE10      29.85F
6HR MIN TEMP:  58; 6HR MAX TEMP:  60;

GRINNELL*      MOCLDY    51  48  89 SE9       29.91F
KNOXVILLE *    CLOUDY    59  52  77 SE10      29.86F
MARSHALLTOWN   MOCLDY    51  48  89 SE12      29.88F
6HR MIN TEMP:  50; 6HR MAX TEMP:  53;

NEWTON *       CLOUDY    52  48  87 SE10      29.87F
PELLA *        CLOUDY    54  50  85 SE9       29.90F
PERRY *        LGT RAIN  50  48  90 E8        29.83F
$$

IAZ004>006-015-016-023>025-035-036-201300-
   NORTH CENTRAL IOWA

CITY           SKY/WX    TMP DP  RH WIND       PRES   REMARKS
ALGONA *       CLOUDY    52  48  87 SE18      29.83R
CLARION *      CLOUDY    50  50 100 SE13G21   29.85R
ESTHERVILLE    CLOUDY    48  46  93 S15       29.80R
6HR MIN TEMP:  48; 6HR MAX TEMP:  51;

FORT DODGE *   CLOUDY    54  46  76 SE7       29.84R
MASON CITY     CLOUDY    46  43  89 SE10      29.88R
6HR MIN TEMP:  46; 6HR MAX TEMP:  48;

FOREST CITY *    N/A     46  45  93 SE10      29.86R
IOWA FALLS *     N/A     49  46  90 SE10      29.89R
$$

IAZ007>011-017>019-026>030-037>042-050>054-066-201300-
   NORTHEAST IOWA

CITY           SKY/WX    TMP DP  RH WIND       PRES   REMARKS
CEDAR RAPIDS   CLOUDY    51  50  96 SE10      29.94S FOG
6HR MIN TEMP:  51; 6HR MAX TEMP:  56;

CHARLES CITY * CLOUDY    48  48 100 SE15      29.90F
CLINTON *      CLOUDY    46  45  96 E10       30.02S FOG
DECORAH *      CLOUDY    48  46  93 SE12G20   29.93S
DUBUQUE        MOCLDY    47  45  93 SE13      30.00R FOG
6HR MIN TEMP:  47; 6HR MAX TEMP:  51;

MONTICELLO *   PTCLDY    48  46  93 SE13      29.98R
OELWEIN *      CLOUDY    48  48 100 SE15      29.95R
WATERLOO       CLOUDY    52  47  83 SE14      29.91S
6HR MIN TEMP:  50; 6HR MAX TEMP:  53;

$$

IAZ064-065-067-068-078-201300-
   EAST CENTRAL IOWA

CITY           SKY/WX    TMP DP  RH WIND       PRES   REMARKS
DAVENPORT      PTCLDY    50  48  93 SE14      30.01S FOG
6HR MIN TEMP:  50; 6HR MAX TEMP:  55;

IOWA CITY      MOCLDY    50  47  89 E5        29.98S FOG
6HR MIN TEMP:  48; 6HR MAX TEMP:  53;

MUSCATINE *    PTCLDY    52  48  87 SE7       29.99S
QUAD CITIES    PTCLDY    51  47  86 SE8       30.00F FOG
6HR MIN TEMP:  48; 6HR MAX TEMP:  55;

$$

IAZ062-063-075>077-085>089-095>099-201300-
   SOUTHEAST IOWA

CITY           SKY/WX    TMP DP  RH WIND       PRES   REMARKS
BURLINGTON     CLOUDY    53  52  96 S13       29.99S FOG
6HR MIN TEMP:  53; 6HR MAX TEMP:  58;

FAIRFIELD *    CLOUDY    54  50  87 SE9       29.94F
KEOKUK *       CLOUDY    52  50  93 SE10      29.97S
OTTUMWA        CLOUDY    56  53  90 SE12      29.92S
6HR MIN TEMP:  56; 6HR MAX TEMP:  60;

WASHINGTON *   MOCLDY    50  50 100 SE13      29.97S FOG
$$

ABBREVIATIONS USED IN REMARKS
   TC - TEMPERATURES IN CELSIUS
  WCI - WIND CHILL INDEX
   HX - HEAT INDEX
  VSB - VISIBILITY
$$





USA.gov is the U.S. government's official web portal to all federal, state and local government web resources and services.